User: anonymous   Login
Location: Bouchavesnes-Bergen
(49.9859°N, 2.9203°E)
Time: 14:25:15
(UTC+00:00)
Language:

CZ-2C R/B - Orbit

View from above orbital plane
View from above orbital plane
View from above satellite
View from above satellite

Ground track
Ground track

The orbit data is extracted from the following two-line orbital elements,

1 28222U 04012C   21126.90468490  .00000504  00000-0  33717-4 0  9999
2 28222  97.7241  97.3024 0046869   5.5414  51.5849 15.10842713934825
Epoch (UTC): 06 May 2021 21:42:44
Eccentricity: 0.0046869
inclination: 97.7241°
perigee height: 501 km
apogee height: 566 km
right ascension of ascending node: 97.3024°
argument of perigee: 5.5414°
revolutions per day: 15.10842713
mean anomaly at epoch: 51.5849°
orbit number at epoch: 93482

The dashed part of the orbit path shows where the satellite is in the earth's shadow,  

DLR